Tracking 25710 objects as of 7-Jul-2022
HD Live streaming from Space Station
objects crossing your sky now

FENGYUN 1C DEB

Track FENGYUN 1C DEB now!
10-day predictions


NORAD ID: 32304
Int'l Code: 1999-025CWV
Perigee: 733.9 km
Apogee: 822.1 km
Inclination: 99.4 °
Period: 100.3 minutes
Semi major axis: 7149 km
RCS: 0.0093 m2 (small)
Launch date: May 10, 1999
Source: People's Republic of China (PRC)
Launch site: Taiyaun Space Center, China (TSC)

Note: This is SATELLITE DEBRIS
aabbcc
Your satellite tracking list
Your tracking list is empty




NASA's NSSDC Master Catalog

Two Line Element Set (TLE):
1 32304U 99025CWV 22185.19075655  .00000687  00000-0  24783-3 0  9991
2 32304  99.4357 356.7816 0061682 302.9489  56.5772 14.36254720381508
Source of the keplerian elements: AFSPC